Вернуться в каталог

KUIPER-00544

АктивенСвязьVLEO
NORAD 69613·PAYLOAD·🇺🇸 United States

Запущен Jun 17, 2026 с Guiana Space Centre

Loading…

Ближайшие Пролёты (ближайшие 24 часа)

TLE

СвежийSource: CelesTrak SupGP

Эпоха: Sep 14, 2026, 21:27 UTC

1 69613C 26140X   26257.89385417 -.01142100  00000+0 -46104-1 0  2578
2 69613  51.8799 324.9732 0005124 154.6054 235.5589 15.25354474    11

Отслеживайте KUIPER-00544 в реальном времени с AllMySat

Download on the App Store